User: anonymous   Login
Location: Caltech
(34.1382°N, 118.1253°W)
Time: 11:54:02
(UTC-08:00)
Language:

Cosmos 2219 Rocket - Orbit

View from above orbital plane
View from above orbital plane
View from above satellite
View from above satellite

Ground track
Ground track

The orbit data is extracted from the following two-line orbital elements,

1 22220U 92076B   14350.74248931  .00000377  00000-0  21366-3 0  4806
2 22220 070.9988 181.8900 0014372 231.6202 183.6839 14.16337770141431
Epoch (UTC): 16 December 2014 17:49:11
Eccentricity: 0.0014372
inclination: 70.9988°
perigee height: 827 km
apogee height: 848 km
right ascension of ascending node: 181.8900°
argument of perigee: 231.6202°
revolutions per day: 14.16337770
mean anomaly at epoch: 183.6839°
orbit number at epoch: 14143

The dashed part of the orbit path shows where the satellite is in the earth's shadow,  

DLR